Regional Weather Roundup
Issued by NWS Cleveland, OH

Home | Current Version | Previous Version | Text Only | Print | Product List | Glossary Off
Versions: 1 2 3 4 5 6 7 8 9 10 11 12 13 14 15 16 17 18 19 20 21 22 23 24 25 26 27 28 29 30 31 32 33 34 35 36 37 38 39 40 41 42 43 44 45 46 47 48 49 50

000
ASUS41 KCLE 251502
RWRCLE
OHIO REGIONAL WEATHER ROUNDUP
NATIONAL WEATHER SERVICE CLEVELAND, OH
1100 AM EDT FRI JUL 25 2014

NOTE: "FAIR" INDICATES FEW OR NO CLOUDS BELOW 12,000 FEET WITH NO
SIGNIFICANT WEATHER AND/OR OBSTRUCTIONS TO VISIBILITY.

OHZ001>008-015>018-024>027-034-035-043-044-251600-
   NORTHWEST OHIO

CITY           SKY/WX    TMP DP  RH WIND       PRES   REMARKS
DEFIANCE       PTSUNNY   70  52  52 SW9       30.11F
FINDLAY        MOSUNNY   69  52  54 S3        30.11R
TOLEDO EXPRESS PTSUNNY   70  52  52 SW8       30.11S
TOLEDO EXEC    PTSUNNY   70  53  54 S9        30.11F
LIMA           FAIR      70  53  54 S5        30.12R
$$

OHZ009>014-019>023-028>033-038-089-251600-
   NORTHEAST OHIO

CITY           SKY/WX    TMP DP  RH WIND       PRES   REMARKS
CLE-HOPKINS    MOSUNNY   69  51  52 VRB3      30.12F
CLE-LAKEFRONT  SUNNY     71  53  52 VRB3      30.09F
CUY CO. ARPT   PTSUNNY   73  55  53 W7        30.13S
LORAIN-ELYRIA  SUNNY     73  52  47 S6        30.11F
ASHTABULA      MOSUNNY   70  53  54 VRB6      30.13R
AKRON-CANTON   MOSUNNY   70  50  49 SW5       30.12F
WOOSTER        SUNNY     69  51  52 MISG      30.12F
MANSFIELD      SUNNY     70  49  47 VRB5      30.13S
YOUNGSTOWN     MOSUNNY   67  50  54 N6        30.13R
$$

OHZ042-051>053-060>062-070>072-077>081-251600-
  SOUTHWEST OHIO

CITY           SKY/WX    TMP DP  RH WIND       PRES   REMARKS
CINC-COVINGTON PTSUNNY   71  54  54 SW5       30.12R
CINC-LUNKEN    MOSUNNY   71  57  61 SW3       30.12R
HAMILTON       MOSUNNY   72  56  57 NW3       30.13R
DAYTON         PTSUNNY   70  52  52 W3        30.13R
WRIGHT-PAT AFB MOSUNNY   68  55  64 VRB2      30.12R
DAYTON GENERAL SUNNY     68  55  63 SW5       30.12R
WILMINGTON     SUNNY     71  53  52 S5        30.11R
$$

OHZ036-037-039>041-045>050-054>059-063>069-073>076-082>088-251600-
  CENTRAL AND SOUTHEAST OHIO

CITY           SKY/WX    TMP DP  RH WIND       PRES   REMARKS
COLUMBUS       MOSUNNY   71  52  50 CALM      30.10F
OSU AIRPORT    SUNNY     70  53  54 S5        30.11S
BOLTON FIELD   SUNNY     70  55  60 S5        30.12S
RICKENBACK AFB SUNNY     71  52  50 CALM      30.10S
NEWARK         SUNNY     69  53  56 VRB7      30.11F
MARION         SUNNY     68  51  54 SW6       30.12S
LANCASTER      SUNNY     71  54  54 SE7       30.11F
ZANESVILLE     SUNNY     69  55  60 CALM      30.12R
NEW PHILLY     SUNNY     70  52  52 NE3       30.13S
$$


USA.gov is the U.S. government's official web portal to all federal, state and local government web resources and services.